STARLINK-32605, 61921

Orbit data source: Space-Track

STARLINK-32605, 61921 is a payload satellite owned by SpaceX/Seattle (US) in LEO that was launched on Mon, 11 Nov 2024 UTC via an FALCON 9 launch vehicle from the Air Force Eastern Test Range (AFETR). Payload-class satellites include a variety of spacecraft equipped with specific instruments for various scientific and technological missions. These include communications satellites like Starlink; space stations such as the ISS; scientific satellites like the Hubble; Earth observation satellites from companies like Planet Labs, Umbra, and HawkEye 360; GPS; miniature CubeSats for education and research; and military/defense satellites.

Loading next visibility...
Identifier
61921, 2024-207K
Orbit
LEO
Country
Flag of USUS
Related business
Manufacturer
SpaceX/Seattle
Mission
Operational Commercial Communications
Bus & Motor
STARLINK V2M, Unknown motor
Mass
730 kg wet, ~700 kg dry
Launch date (UTC)
2024-11-11 (2 years ago)
Launch vehicle
FALCON 9
Launch site
Air Force Eastern Test Range (AFETR)
Object type
Payload
Rocket body
Debris
Shape & HBR
Box + 2 Pan, 17.7 m
Radar Cross Section
33.884 m², Large (>1 m²)

Expand to show TLE details & history
Last TLE update: 1 day ago

TLE from 1 day ago
0 STARLINK-32605
1 61921U 24207K   26206.32447665  .00018007  00000-0  66225-3 0  9997
2 61921  43.0021 224.2759 0002172 288.9343  71.1273 15.27581900 95778
Epoch: 2026-07-25T07:47Z
TLE epoch observation values (Epoch: 2026-07-25T07:47:14.782Z)
Latitude
-0.00003°
Longitude
164.42588°
Altitude
482.337 km
Speed
7.626 km/s
True Right ascension
14h 57m 06s
True Declination
0° 00' 00"
Sunlit
Object was in daylight at epoch
Visualization orbit readout
Latitude
Unknown
Longitude
Unknown
Altitude
Unknown
Speed
Unknown
Apparent Right ascension
Unknown
Apparent Declination
Unknown
Sunlit
N/A
Visualization observer readout
Local Sidereal Time
22:17:51
Azimuth
Unknown
Elevation
Unknown
Doppler factor
Unknown
Orbital elements
Apogee altitude
486.479 km
Perigee altitude
483.498 km
Semi-major axis
6,863.125 km
Eccentricity
0.00022
Inclination
43.0021°
RAAN
224.2759°
Arg. of periapsis
288.9343°
True anomaly
71.15085°
Mean anomaly
71.1273°
Eccentric anomaly
71.13908°
Mean motion
3.81734 °/min
Orbital period
94.31 mins
BSTAR
0.00066225
Loading maneuver chart data...
Computing Atmospheric mass density...
Loading historical data...
Loading historical data...
Loading historical data...
Loading historical data...
Loading historical data...
Loading historical data...
Loading historical data...

Documentation

Showing up to 5 results
|